| time (UTC) | temp F | wind direction | speed MPH | gust MPH | rain 1hr in | rain 24hr in | rain mn in | humidity % | barometer mb |
| 20260507093352 | 56 | 12 | 0.0 | 0.0 | 0.00 | 0.00 | 0.00 | 95 | 1019.0 |
| 20260507092850 | 56 | 13 | 0.0 | 0.0 | 0.00 | 0.00 | 0.00 | 94 | 1019.0 |
| 20260507092346 | 57 | 13 | 0.0 | 0.0 | 0.00 | 0.00 | 0.00 | 94 | 1019.0 |
| 20260507091842 | 57 | 13 | 0.0 | 0.0 | 0.00 | 0.00 | 0.00 | 94 | 1019.0 |
| 20260507091339 | 57 | 13 | 0.0 | 0.0 | 0.00 | 0.00 | 0.00 | 94 | 1019.0 |
| 20260507090835 | 57 | 13 | 0.0 | 0.0 | 0.00 | 0.00 | 0.00 | 94 | 1019.3 |
| 20260507090331 | 57 | 13 | 0.0 | 0.0 | 0.00 | 0.00 | 0.00 | 94 | 1019.3 |
| 20260507085828 | 57 | 13 | 0.0 | 0.0 | 0.00 | 0.00 | 0.00 | 94 | 1019.3 |
| 20260507085325 | 57 | 12 | 0.0 | 0.0 | 0.00 | 0.00 | 0.00 | 94 | 1019.3 |
| 20260507084823 | 57 | 12 | 0.0 | 0.0 | 0.00 | 0.00 | 0.00 | 94 | 1019.3 |
| 20260507084319 | 57 | 13 | 0.0 | 0.0 | 0.00 | 0.00 | 0.00 | 94 | 1019.3 |
| 20260507083816 | 57 | 12 | 0.0 | 0.0 | 0.00 | 0.00 | 0.00 | 94 | 1019.3 |
| 20260507083313 | 57 | 15 | 0.0 | 0.0 | 0.00 | 0.00 | 0.00 | 94 | 1019.3 |
| 20260507082809 | 57 | 14 | 0.0 | 0.0 | 0.00 | 0.00 | 0.00 | 94 | 1019.7 |
| 20260507082306 | 57 | 17 | 0.0 | 0.0 | 0.00 | 0.00 | 0.00 | 94 | 1019.7 |
| 20260507081802 | 57 | 14 | 0.0 | 0.0 | 0.00 | 0.00 | 0.00 | 94 | 1019.3 |
| 20260507081257 | 57 | 14 | 0.0 | 0.0 | 0.00 | 0.00 | 0.00 | 94 | 1019.7 |
| 20260507080755 | 57 | 12 | 0.0 | 0.0 | 0.00 | 0.00 | 0.00 | 94 | 1019.3 |
| 20260507080251 | 57 | 12 | 0.0 | 0.0 | 0.00 | 0.00 | 0.00 | 94 | 1019.7 |
| 20260507075746 | 57 | 13 | 0.0 | 0.0 | 0.00 | 0.00 | 0.00 | 94 | 1019.7 |
| 20260507075242 | 57 | 12 | 0.0 | 0.0 | 0.00 | 0.00 | 0.00 | 94 | 1019.7 |
| 20260507074739 | 57 | 12 | 0.0 | 0.0 | 0.00 | 0.00 | 0.00 | 94 | 1019.7 |
| 20260507074237 | 57 | 11 | 0.0 | 0.0 | 0.00 | 0.00 | 0.00 | 93 | 1019.7 |
| 20260507073733 | 57 | 11 | 0.0 | 0.0 | 0.00 | 0.00 | 0.00 | 93 | 1019.7 |
| 20260507073230 | 57 | 11 | 0.0 | 0.0 | 0.00 | 0.00 | 0.00 | 93 | 1020.0 |
| 20260507072728 | 57 | 10 | 0.0 | 0.0 | 0.00 | 0.00 | 0.00 | 93 | 1020.0 |
| 20260507072225 | 57 | 10 | 0.0 | 0.0 | 0.00 | 0.00 | 0.00 | 93 | 1020.0 |
| 20260507071723 | 58 | 11 | 0.0 | 0.0 | 0.00 | 0.00 | 0.00 | 93 | 1019.7 |
| 20260507071219 | 58 | 11 | 0.0 | 0.0 | 0.00 | 0.00 | 0.00 | 93 | 1019.7 |
| 20260507070716 | 58 | 9 | 0.0 | 0.0 | 0.00 | 0.00 | 0.00 | 93 | 1019.7 |
| 20260507070213 | 58 | 8 | 0.0 | 0.0 | 0.00 | 0.00 | 0.00 | 93 | 1020.0 |
| 20260507065709 | 58 | 347 | 0.0 | 0.0 | 0.00 | 0.00 | 0.00 | 93 | 1019.7 |
| 20260507065206 | 58 | 350 | 0.0 | 0.0 | 0.00 | 0.00 | 0.00 | 93 | 1020.0 |
| 20260507063804 | 58 | 271 | 0.0 | 1.0 | 0.00 | 0.00 | 0.00 | 93 | 1020.0 |
| 20260507063301 | 58 | 271 | 0.0 | 1.0 | 0.00 | 0.00 | 0.00 | 93 | 1020.0 |
| 20260507062758 | 58 | 315 | 0.0 | 0.0 | 0.00 | 0.00 | 0.00 | 93 | 1019.7 |
| 20260507062255 | 58 | 346 | 0.0 | 0.0 | 0.00 | 0.00 | 0.00 | 92 | 1020.0 |
| 20260507061753 | 58 | 341 | 0.0 | 0.0 | 0.00 | 0.00 | 0.00 | 92 | 1020.0 |
| 20260507061250 | 58 | 326 | 0.0 | 0.0 | 0.00 | 0.00 | 0.00 | 92 | 1020.0 |
| 20260507060749 | 59 | 278 | 0.0 | 0.0 | 0.00 | 0.00 | 0.00 | 92 | 1020.0 |
| 20260507060245 | 58 | 312 | 0.0 | 2.0 | 0.00 | 0.00 | 0.00 | 92 | 1020.0 |
| 20260507055741 | 58 | 327 | 0.0 | 0.0 | 0.00 | 0.00 | 0.00 | 92 | 1020.0 |
| 20260507055237 | 59 | 337 | 0.0 | 2.0 | 0.00 | 0.00 | 0.00 | 92 | 1020.0 |
| 20260507054733 | 59 | 11 | 0.0 | 1.0 | 0.00 | 0.00 | 0.00 | 92 | 1020.0 |
| 20260507054230 | 59 | 337 | 0.0 | 3.0 | 0.00 | 0.00 | 0.00 | 92 | 1020.0 |
| 20260507053727 | 59 | 329 | 0.0 | 1.0 | 0.00 | 0.00 | 0.00 | 92 | 1020.0 |
| 20260507053225 | 59 | 341 | 0.0 | 0.0 | 0.00 | 0.00 | 0.00 | 92 | 1019.7 |
| 20260507052724 | 59 | 344 | 0.0 | 0.0 | 0.00 | 0.00 | 0.00 | 91 | 1020.0 |
| 20260507052219 | 59 | 342 | 0.0 | 1.0 | 0.00 | 0.00 | 0.00 | 91 | 1020.0 |
| 20260507051718 | 59 | 352 | 0.0 | 0.0 | 0.00 | 0.00 | 0.00 | 91 | 1020.0 |
| 20260507051214 | 59 | 318 | 0.0 | 0.0 | 0.00 | 0.00 | 0.00 | 91 | 1020.0 |
| 20260507050711 | 59 | 335 | 0.0 | 0.0 | 0.00 | 0.00 | 0.00 | 91 | 1019.7 |
| 20260507050208 | 59 | 342 | 0.0 | 0.0 | 0.00 | 0.00 | 0.00 | 91 | 1019.7 |
| 20260507045705 | 59 | 278 | 0.0 | 1.0 | 0.00 | 0.00 | 0.00 | 91 | 1019.7 |
| 20260507045201 | 59 | 341 | 0.0 | 2.0 | 0.00 | 0.00 | 0.00 | 91 | 1019.7 |
| 20260507044658 | 59 | 338 | 0.0 | 0.0 | 0.00 | 0.00 | 0.00 | 91 | 1019.7 |
| 20260507044154 | 59 | 340 | 0.0 | 0.0 | 0.00 | 0.00 | 0.00 | 91 | 1019.7 |
| 20260507043651 | 59 | 303 | 0.0 | 1.0 | 0.00 | 0.00 | 0.00 | 90 | 1019.7 |
| 20260507043148 | 59 | 345 | 0.0 | 2.0 | 0.00 | 0.00 | 0.00 | 90 | 1019.3 |
| 20260507042644 | 59 | 227 | 0.0 | 1.0 | 0.00 | 0.00 | 0.00 | 90 | 1019.7 |
| 20260507042139 | 59 | 325 | 0.0 | 2.0 | 0.00 | 0.00 | 0.00 | 90 | 1019.7 |
| 20260507041637 | 59 | 279 | 1.0 | 2.0 | 0.00 | 0.00 | 0.00 | 90 | 1019.7 |
| 20260507041133 | 59 | 189 | 2.0 | 3.0 | 0.00 | 0.00 | 0.00 | 90 | 1019.7 |
| 20260507040630 | 59 | 319 | 0.0 | 3.0 | 0.00 | 0.00 | 0.00 | 90 | 1019.7 |
| 20260507040127 | 59 | 251 | 1.0 | 2.0 | 0.00 | 0.00 | 0.00 | 90 | 1019.7 |
| 20260507035622 | 59 | 314 | 0.0 | 2.0 | 0.00 | 0.00 | 0.00 | 89 | 1019.7 |
| 20260507035118 | 60 | 206 | 2.0 | 3.0 | 0.00 | 0.00 | 0.00 | 89 | 1019.3 |
| 20260507034616 | 60 | 339 | 0.0 | 1.0 | 0.00 | 0.00 | 0.00 | 89 | 1019.3 |
| 20260507034113 | 60 | 276 | 1.0 | 3.0 | 0.00 | 0.00 | 0.00 | 89 | 1019.3 |
| 20260507033611 | 60 | 296 | 3.0 | 4.0 | 0.00 | 0.00 | 0.00 | 89 | 1019.3 |
| 20260507033108 | 60 | 257 | 2.0 | 4.0 | 0.00 | 0.00 | 0.00 | 89 | 1019.3 |
| 20260507032605 | 60 | 11 | 2.0 | 6.0 | 0.00 | 0.00 | 0.00 | 88 | 1019.0 |
| 20260507032102 | 60 | 334 | 1.0 | 2.0 | 0.00 | 0.00 | 0.00 | 88 | 1019.0 |
| 20260507031558 | 60 | 286 | 1.0 | 2.0 | 0.00 | 0.00 | 0.00 | 88 | 1019.0 |
| 20260507031055 | 60 | 288 | 1.0 | 3.0 | 0.00 | 0.00 | 0.00 | 88 | 1019.3 |
| 20260507030551 | 60 | 349 | 1.0 | 3.0 | 0.00 | 0.00 | 0.00 | 87 | 1019.0 |
| 20260507030050 | 60 | 336 | 2.0 | 4.0 | 0.00 | 0.00 | 0.00 | 87 | 1019.0 |
| 20260507025547 | 60 | 302 | 2.0 | 2.0 | 0.00 | 0.00 | 0.00 | 86 | 1019.0 |
| 20260507025044 | 60 | 319 | 2.0 | 3.0 | 0.00 | 0.00 | 0.00 | 86 | 1019.0 |
| 20260507024542 | 60 | 237 | 2.0 | 4.0 | 0.00 | 0.00 | 0.00 | 86 | 1019.0 |
| 20260507024038 | 61 | 277 | 2.0 | 8.0 | 0.00 | 0.00 | 0.00 | 85 | 1018.7 |
| 20260507023534 | 61 | 348 | 1.0 | 4.0 | 0.00 | 0.00 | 0.00 | 84 | 1018.7 |
| 20260507023032 | 61 | 319 | 0.0 | 4.0 | 0.00 | 0.00 | 0.00 | 83 | 1018.7 |
| 20260507022528 | 61 | 192 | 1.0 | 2.0 | 0.00 | 0.00 | 0.00 | 83 | 1018.7 |
| 20260507022023 | 62 | 293 | 2.0 | 6.0 | 0.00 | 0.00 | 0.00 | 82 | 1018.7 |
| 20260507021520 | 62 | 300 | 4.0 | 6.0 | 0.00 | 0.00 | 0.00 | 81 | 1018.7 |
| 20260507021016 | 62 | 284 | 2.0 | 4.0 | 0.00 | 0.00 | 0.00 | 80 | 1018.7 |
| 20260507020514 | 62 | 282 | 1.0 | 2.0 | 0.00 | 0.00 | 0.00 | 79 | 1018.7 |
| 20260507020010 | 62 | 199 | 3.0 | 4.0 | 0.00 | 0.00 | 0.00 | 78 | 1018.7 |
| 20260507015509 | 63 | 337 | 2.0 | 3.0 | 0.00 | 0.00 | 0.00 | 77 | 1018.3 |
| 20260507015006 | 63 | 249 | 4.0 | 8.0 | 0.00 | 0.00 | 0.00 | 77 | 1018.7 |
| 20260507014502 | 63 | 248 | 2.0 | 7.0 | 0.00 | 0.00 | 0.00 | 76 | 1018.7 |
| 20260507013958 | 64 | 263 | 5.0 | 6.0 | 0.00 | 0.00 | 0.00 | 74 | 1018.3 |
| 20260507013455 | 64 | 217 | 2.0 | 6.0 | 0.00 | 0.00 | 0.00 | 74 | 1018.7 |
| 20260507012952 | 63 | 213 | 5.0 | 8.0 | 0.00 | 0.00 | 0.00 | 74 | 1018.3 |
| 20260507012449 | 64 | 322 | 2.0 | 7.0 | 0.00 | 0.00 | 0.00 | 74 | 1018.7 |
| 20260507011946 | 64 | 269 | 2.0 | 3.0 | 0.00 | 0.00 | 0.00 | 75 | 1018.7 |
| 20260507011443 | 64 | 340 | 1.0 | 6.0 | 0.00 | 0.00 | 0.00 | 75 | 1018.3 |
| 20260507010938 | 64 | 321 | 2.0 | 4.0 | 0.00 | 0.00 | 0.00 | 76 | 1018.7 |
| 20260507010433 | 64 | 240 | 3.0 | 6.0 | 0.00 | 0.00 | 0.00 | 76 | 1018.3 |
| 20260507005930 | 64 | 269 | 2.0 | 9.0 | 0.00 | 0.00 | 0.00 | 76 | 1018.3 |
| 20260507005427 | 64 | 221 | 2.0 | 6.0 | 0.00 | 0.00 | 0.00 | 76 | 1018.3 |
| 20260507004923 | 65 | 312 | 3.0 | 4.0 | 0.00 | 0.00 | 0.00 | 74 | 1018.3 |
| 20260507004420 | 65 | 282 | 2.0 | 3.0 | 0.00 | 0.00 | 0.00 | 73 | 1018.3 |
| 20260507003918 | 64 | 263 | 5.0 | 9.0 | 0.00 | 0.00 | 0.00 | 74 | 1018.3 |
| 20260507003413 | 66 | 302 | 2.0 | 6.0 | 0.00 | 0.00 | 0.00 | 73 | 1018.3 |
| 20260507002908 | 67 | 335 | 2.0 | 3.0 | 0.00 | 0.00 | 0.00 | 70 | 1018.7 |
| 20260507002404 | 66 | 272 | 4.0 | 7.0 | 0.00 | 0.00 | 0.00 | 69 | 1018.3 |
| 20260507001902 | 67 | 179 | 2.0 | 3.0 | 0.00 | 0.00 | 0.00 | 69 | 1018.7 |
| 20260507001359 | 67 | 238 | 2.0 | 6.0 | 0.00 | 0.00 | 0.00 | 69 | 1018.3 |
| 20260507000856 | 67 | 295 | 2.0 | 4.0 | 0.00 | 0.00 | 0.00 | 71 | 1018.7 |
| 20260507000351 | 66 | 328 | 4.0 | 7.0 | 0.00 | 0.00 | 0.00 | 72 | 1018.3 |
| 20260506235847 | 66 | 316 | 4.0 | 9.0 | 0.00 | 0.00 | 0.00 | 73 | 1018.3 |
| 20260506235345 | 67 | 321 | 3.0 | 7.0 | 0.00 | 0.00 | 0.00 | 72 | 1018.7 |
| 20260506234840 | 66 | 209 | 4.0 | 8.0 | 0.00 | 0.00 | 0.00 | 73 | 1018.3 |
| 20260506234338 | 66 | 278 | 6.0 | 8.0 | 0.00 | 0.00 | 0.00 | 71 | 1018.3 |
| 20260506233836 | 66 | 293 | 4.0 | 6.0 | 0.00 | 0.00 | 0.00 | 70 | 1018.3 |
| 20260506233331 | 67 | 259 | 4.0 | 8.0 | 0.00 | 0.00 | 0.00 | 70 | 1018.7 |
| 20260506232829 | 67 | 16 | 2.0 | 9.0 | 0.00 | 0.00 | 0.00 | 70 | 1018.7 |
| 20260506232324 | 66 | 205 | 2.0 | 4.0 | 0.00 | 0.00 | 0.00 | 71 | 1018.7 |
| 20260506231821 | 67 | 275 | 3.0 | 9.0 | 0.00 | 0.00 | 0.00 | 72 | 1018.7 |
| 20260506231319 | 67 | 270 | 2.0 | 3.0 | 0.00 | 0.00 | 0.00 | 71 | 1018.7 |
| 20260506230816 | 66 | 293 | 4.0 | 7.0 | 0.00 | 0.00 | 0.00 | 72 | 1018.7 |
| 20260506230313 | 67 | 261 | 5.0 | 9.0 | 0.00 | 0.00 | 0.00 | 70 | 1018.7 |
| 20260506225809 | 69 | 252 | 4.0 | 7.0 | 0.00 | 0.00 | 0.00 | 67 | 1018.7 |
| 20260506225306 | 69 | 316 | 2.0 | 4.0 | 0.00 | 0.00 | 0.00 | 67 | 1018.7 |
| 20260506224803 | 68 | 32 | 4.0 | 7.0 | 0.00 | 0.00 | 0.00 | 70 | 1018.7 |
| 20260506224300 | 68 | 208 | 4.0 | 6.0 | 0.00 | 0.00 | 0.00 | 67 | 1018.7 |
| 20260506223756 | 68 | 263 | 4.0 | 8.0 | 0.00 | 0.00 | 0.00 | 67 | 1018.7 |
| 20260506223251 | 68 | 322 | 2.0 | 6.0 | 0.00 | 0.00 | 0.00 | 69 | 1018.7 |
| 20260506222749 | 68 | 271 | 3.0 | 8.0 | 0.00 | 0.00 | 0.00 | 68 | 1019.0 |
| 20260506222244 | 68 | 206 | 4.0 | 6.0 | 0.00 | 0.00 | 0.00 | 67 | 1019.0 |
| 20260506221737 | 68 | 235 | 4.0 | 8.0 | 0.00 | 0.00 | 0.00 | 69 | 1019.0 |
| 20260506221234 | 69 | 306 | 4.0 | 7.0 | 0.00 | 0.00 | 0.00 | 65 | 1019.0 |
| 20260506220731 | 69 | 222 | 4.0 | 8.0 | 0.00 | 0.00 | 0.00 | 66 | 1019.0 |
| 20260506220226 | 68 | 321 | 5.0 | 8.0 | 0.00 | 0.00 | 0.00 | 66 | 1019.3 |
| 20260506215723 | 68 | 51 | 2.0 | 6.0 | 0.00 | 0.00 | 0.00 | 67 | 1019.3 |
| 20260506215219 | 69 | 281 | 2.0 | 7.0 | 0.00 | 0.00 | 0.00 | 65 | 1019.3 |
| 20260506214715 | 70 | 289 | 4.0 | 4.0 | 0.00 | 0.00 | 0.00 | 63 | 1019.7 |
| 20260506214213 | 70 | 220 | 3.0 | 7.0 | 0.00 | 0.00 | 0.00 | 64 | 1019.7 |
| 20260506213711 | 69 | 277 | 2.0 | 4.0 | 0.00 | 0.00 | 0.00 | 65 | 1019.3 |
| 20260506213208 | 69 | 206 | 5.0 | 7.0 | 0.00 | 0.00 | 0.00 | 64 | 1019.7 |
| 20260506212705 | 69 | 221 | 5.0 | 8.0 | 0.00 | 0.00 | 0.00 | 65 | 1019.7 |
| 20260506212200 | 68 | 350 | 3.0 | 9.0 | 0.00 | 0.00 | 0.00 | 66 | 1019.3 |
| 20260506211656 | 68 | 282 | 5.0 | 8.0 | 0.00 | 0.00 | 0.00 | 66 | 1019.7 |
| 20260506211152 | 68 | 243 | 5.0 | 9.0 | 0.00 | 0.00 | 0.00 | 66 | 1020.0 |
| 20260506210649 | 68 | 248 | 4.0 | 7.0 | 0.00 | 0.00 | 0.00 | 65 | 1020.0 |
| 20260506210146 | 68 | 206 | 3.0 | 7.0 | 0.00 | 0.00 | 0.00 | 65 | 1020.0 |
| 20260506205644 | 68 | 276 | 4.0 | 7.0 | 0.00 | 0.00 | 0.00 | 64 | 1019.7 |
| 20260506205138 | 68 | 270 | 5.0 | 8.0 | 0.00 | 0.00 | 0.00 | 65 | 1019.7 |
| 20260506204636 | 68 | 167 | 3.0 | 7.0 | 0.00 | 0.00 | 0.00 | 66 | 1020.0 |
| 20260506204133 | 68 | 219 | 4.0 | 7.0 | 0.00 | 0.00 | 0.00 | 66 | 1020.0 |
| 20260506203631 | 68 | 297 | 4.0 | 7.0 | 0.00 | 0.00 | 0.00 | 66 | 1020.0 |
| 20260506203127 | 69 | 225 | 3.0 | 7.0 | 0.00 | 0.00 | 0.00 | 66 | 1020.0 |
| 20260506202626 | 69 | 235 | 4.0 | 7.0 | 0.00 | 0.00 | 0.00 | 65 | 1020.0 |
| 20260506202121 | 69 | 311 | 5.0 | 7.0 | 0.00 | 0.00 | 0.00 | 65 | 1020.0 |
| 20260506201619 | 68 | 269 | 4.0 | 6.0 | 0.00 | 0.00 | 0.00 | 67 | 1020.0 |
| 20260506201115 | 68 | 303 | 6.0 | 8.0 | 0.00 | 0.00 | 0.00 | 66 | 1020.4 |
| 20260506200612 | 69 | 202 | 2.0 | 8.0 | 0.00 | 0.00 | 0.00 | 66 | 1020.4 |
| 20260506200109 | 69 | 213 | 4.0 | 6.0 | 0.00 | 0.00 | 0.00 | 65 | 1020.4 |
| 20260506195605 | 69 | 205 | 3.0 | 7.0 | 0.00 | 0.00 | 0.00 | 66 | 1020.7 |
| 20260506195102 | 69 | 235 | 2.0 | 7.0 | 0.00 | 0.00 | 0.00 | 66 | 1020.4 |
| 20260506194559 | 70 | 262 | 4.0 | 6.0 | 0.00 | 0.00 | 0.00 | 61 | 1020.4 |
| 20260506194055 | 70 | 291 | 3.0 | 6.0 | 0.00 | 0.00 | 0.00 | 62 | 1020.4 |
| 20260506193553 | 70 | 248 | 4.0 | 8.0 | 0.00 | 0.00 | 0.00 | 63 | 1020.7 |
| 20260506193050 | 69 | 303 | 3.0 | 6.0 | 0.00 | 0.00 | 0.00 | 64 | 1020.7 |
| 20260506192547 | 68 | 340 | 2.0 | 7.0 | 0.00 | 0.00 | 0.00 | 66 | 1020.7 |
| 20260506192043 | 69 | 245 | 2.0 | 6.0 | 0.00 | 0.00 | 0.00 | 65 | 1020.7 |
| 20260506191540 | 68 | 219 | 4.0 | 8.0 | 0.00 | 0.00 | 0.00 | 64 | 1020.7 |
| 20260506191035 | 68 | 243 | 2.0 | 7.0 | 0.00 | 0.00 | 0.00 | 65 | 1020.7 |
| 20260506190533 | 68 | 294 | 2.0 | 6.0 | 0.00 | 0.00 | 0.00 | 66 | 1021.0 |
| 20260506190030 | 69 | 293 | 5.0 | 6.0 | 0.00 | 0.00 | 0.00 | 63 | 1020.7 |
| 20260506185527 | 69 | 293 | 2.0 | 4.0 | 0.00 | 0.00 | 0.00 | 63 | 1021.0 |
| 20260506185024 | 69 | 217 | 2.0 | 7.0 | 0.00 | 0.00 | 0.00 | 65 | 1021.0 |
| 20260506184521 | 69 | 10 | 4.0 | 6.0 | 0.00 | 0.00 | 0.00 | 63 | 1020.7 |
| 20260506184018 | 69 | 342 | 0.0 | 7.0 | 0.00 | 0.00 | 0.00 | 64 | 1020.7 |
| 20260506183514 | 69 | 328 | 2.0 | 4.0 | 0.00 | 0.00 | 0.00 | 64 | 1020.7 |
| 20260506183011 | 69 | 234 | 4.0 | 8.0 | 0.00 | 0.00 | 0.00 | 63 | 1021.0 |
| 20260506182508 | 69 | 155 | 2.0 | 6.0 | 0.00 | 0.00 | 0.00 | 63 | 1021.0 |
| 20260506182005 | 68 | 246 | 2.0 | 4.0 | 0.00 | 0.00 | 0.00 | 64 | 1020.7 |
| 20260506181503 | 68 | 224 | 3.0 | 4.0 | 0.00 | 0.00 | 0.00 | 64 | 1021.0 |
| 20260506181000 | 70 | 264 | 4.0 | 6.0 | 0.00 | 0.00 | 0.00 | 61 | 1021.0 |
| 20260506180456 | 70 | 162 | 2.0 | 4.0 | 0.00 | 0.00 | 0.00 | 63 | 1021.0 |
| 20260506175953 | 69 | 272 | 3.0 | 4.0 | 0.00 | 0.00 | 0.00 | 63 | 1021.0 |
| 20260506175450 | 69 | 308 | 2.0 | 4.0 | 0.00 | 0.00 | 0.00 | 63 | 1021.0 |
| 20260506174946 | 69 | 320 | 2.0 | 4.0 | 0.00 | 0.00 | 0.00 | 64 | 1021.0 |
| 20260506174444 | 68 | 50 | 0.0 | 4.0 | 0.00 | 0.00 | 0.00 | 65 | 1021.0 |
| 20260506173940 | 68 | 268 | 3.0 | 7.0 | 0.00 | 0.00 | 0.00 | 65 | 1021.0 |
| 20260506173438 | 69 | 164 | 3.0 | 4.0 | 0.00 | 0.00 | 0.00 | 65 | 1021.0 |
| 20260506172935 | 71 | 359 | 3.0 | 4.0 | 0.00 | 0.00 | 0.00 | 61 | 1021.0 |
| 20260506172432 | 71 | 331 | 0.0 | 2.0 | 0.00 | 0.00 | 0.00 | 61 | 1021.0 |
| 20260506171928 | 71 | 247 | 2.0 | 3.0 | 0.00 | 0.00 | 0.00 | 59 | 1020.7 |
| 20260506171426 | 68 | 354 | 1.0 | 2.0 | 0.00 | 0.00 | 0.00 | 63 | 1021.0 |
| 20260506170924 | 67 | 335 | 1.0 | 3.0 | 0.00 | 0.00 | 0.00 | 64 | 1021.0 |
| 20260506170420 | 68 | 337 | 0.0 | 2.0 | 0.00 | 0.00 | 0.00 | 65 | 1021.0 |
| 20260506165919 | 68 | 1 | 0.0 | 2.0 | 0.00 | 0.00 | 0.00 | 64 | 1021.0 |
| 20260506165417 | 68 | 312 | 0.0 | 2.0 | 0.00 | 0.00 | 0.00 | 64 | 1021.0 |
| 20260506164912 | 68 | 267 | 4.0 | 4.0 | 0.00 | 0.00 | 0.00 | 64 | 1020.7 |
| 20260506164409 | 68 | 271 | 1.0 | 3.0 | 0.00 | 0.00 | 0.00 | 65 | 1020.7 |
| 20260506163908 | 69 | 353 | 1.0 | 2.0 | 0.00 | 0.00 | 0.00 | 63 | 1020.7 |
| 20260506163402 | 69 | 140 | 2.0 | 3.0 | 0.00 | 0.00 | 0.00 | 64 | 1020.7 |
| 20260506162857 | 69 | 0 | 2.0 | 2.0 | 0.00 | 0.00 | 0.00 | 63 | 1020.7 |
| 20260506162355 | 69 | 40 | 0.0 | 2.0 | 0.00 | 0.00 | 0.00 | 64 | 1021.0 |
| 20260506161852 | 70 | 347 | 0.0 | 1.0 | 0.00 | 0.00 | 0.00 | 63 | 1021.0 |
| 20260506161349 | 68 | 348 | 1.0 | 2.0 | 0.00 | 0.00 | 0.00 | 64 | 1021.0 |
| 20260506160847 | 67 | 262 | 2.0 | 6.0 | 0.00 | 0.00 | 0.00 | 66 | 1020.7 |
| 20260506160344 | 67 | 342 | 1.0 | 3.0 | 0.00 | 0.00 | 0.00 | 67 | 1021.0 |
| 20260506155842 | 66 | 238 | 1.0 | 2.0 | 0.00 | 0.00 | 0.00 | 68 | 1021.0 |
| 20260506155338 | 65 | 38 | 1.0 | 1.0 | 0.00 | 0.00 | 0.00 | 71 | 1021.0 |
| 20260506153456 | 64 | 33 | 1.0 | 2.0 | 0.00 | 0.00 | 0.00 | 72 | 1021.0 |
| 20260506152954 | 64 | 334 | 0.0 | 2.0 | 0.00 | 0.00 | 0.00 | 72 | 1021.0 |
| 20260506152450 | 65 | 13 | 1.0 | 2.0 | 0.00 | 0.00 | 0.00 | 70 | 1021.0 |
| 20260506151949 | 64 | 67 | 2.0 | 4.0 | 0.00 | 0.00 | 0.00 | 73 | 1020.7 |
| 20260506151446 | 64 | 25 | 2.0 | 3.0 | 0.00 | 0.00 | 0.00 | 71 | 1021.0 |
| 20260506150943 | 63 | 30 | 1.0 | 2.0 | 0.00 | 0.00 | 0.00 | 73 | 1021.0 |
| 20260506150439 | 63 | 57 | 1.0 | 2.0 | 0.00 | 0.00 | 0.00 | 74 | 1020.7 |
| 20260506145936 | 64 | 351 | 1.0 | 3.0 | 0.00 | 0.00 | 0.00 | 72 | 1021.0 |
| 20260506145432 | 63 | 76 | 1.0 | 2.0 | 0.00 | 0.00 | 0.00 | 72 | 1021.0 |
| 20260506144930 | 62 | 48 | 2.0 | 4.0 | 0.00 | 0.00 | 0.00 | 74 | 1021.0 |
| 20260506144427 | 63 | 26 | 2.0 | 2.0 | 0.00 | 0.00 | 0.00 | 71 | 1021.0 |
| 20260506143925 | 62 | 1 | 1.0 | 3.0 | 0.00 | 0.00 | 0.00 | 73 | 1021.0 |
| 20260506143422 | 61 | 10 | 0.0 | 2.0 | 0.00 | 0.00 | 0.00 | 74 | 1021.0 |
| 20260506142920 | 62 | 8 | 1.0 | 3.0 | 0.00 | 0.00 | 0.00 | 73 | 1021.0 |
| 20260506142418 | 61 | 350 | 0.0 | 2.0 | 0.00 | 0.00 | 0.00 | 75 | 1020.7 |
| 20260506141916 | 61 | 0 | 0.0 | 4.0 | 0.00 | 0.00 | 0.00 | 75 | 1020.7 |
| 20260506141413 | 60 | 344 | 0.0 | 1.0 | 0.00 | 0.00 | 0.00 | 75 | 1020.7 |
| 20260506140911 | 60 | 5 | 1.0 | 3.0 | 0.00 | 0.00 | 0.00 | 75 | 1020.7 |
| 20260506140408 | 60 | 348 | 0.0 | 1.0 | 0.00 | 0.00 | 0.00 | 76 | 1020.7 |
| 20260506135905 | 60 | 8 | 1.0 | 2.0 | 0.00 | 0.00 | 0.00 | 76 | 1020.7 |
| 20260506135402 | 59 | 348 | 0.0 | 0.0 | 0.00 | 0.00 | 0.00 | 77 | 1020.7 |
| 20260506134858 | 59 | 356 | 1.0 | 2.0 | 0.00 | 0.00 | 0.00 | 77 | 1020.4 |
| 20260506134354 | 58 | 348 | 0.0 | 0.0 | 0.00 | 0.00 | 0.00 | 80 | 1020.7 |
| 20260506133851 | 57 | 343 | 0.0 | 0.0 | 0.00 | 0.00 | 0.00 | 83 | 1020.7 |
| 20260506133348 | 56 | 342 | 0.0 | 0.0 | 0.00 | 0.00 | 0.00 | 84 | 1020.4 |
| 20260506132844 | 55 | 340 | 0.0 | 0.0 | 0.00 | 0.00 | 0.00 | 86 | 1020.4 |
| 20260506132342 | 54 | 342 | 0.0 | 0.0 | 0.00 | 0.00 | 0.00 | 86 | 1020.4 |
| 20260506131840 | 54 | 340 | 0.0 | 0.0 | 0.00 | 0.00 | 0.00 | 87 | 1020.4 |
| 20260506131336 | 54 | 345 | 0.0 | 0.0 | 0.00 | 0.00 | 0.00 | 87 | 1020.4 |
| 20260506130833 | 54 | 338 | 0.0 | 0.0 | 0.00 | 0.00 | 0.00 | 87 | 1020.4 |
| 20260506130329 | 53 | 339 | 0.0 | 0.0 | 0.00 | 0.00 | 0.00 | 87 | 1020.4 |
| 20260506125827 | 53 | 343 | 0.0 | 0.0 | 0.00 | 0.00 | 0.00 | 87 | 1020.4 |
| 20260506125326 | 53 | 340 | 0.0 | 0.0 | 0.00 | 0.00 | 0.00 | 87 | 1020.4 |
| 20260506124824 | 53 | 343 | 0.0 | 0.0 | 0.00 | 0.00 | 0.00 | 87 | 1020.4 |
| 20260506124320 | 53 | 340 | 0.0 | 0.0 | 0.00 | 0.00 | 0.00 | 87 | 1020.0 |
| 20260506123818 | 53 | 341 | 0.0 | 0.0 | 0.00 | 0.00 | 0.00 | 86 | 1020.0 |
| 20260506123317 | 53 | 342 | 0.0 | 0.0 | 0.00 | 0.00 | 0.00 | 86 | 1020.0 |
| 20260506122813 | 54 | 339 | 0.0 | 0.0 | 0.00 | 0.00 | 0.00 | 87 | 1020.0 |
| 20260506122310 | 54 | 337 | 0.0 | 0.0 | 0.00 | 0.00 | 0.00 | 87 | 1020.0 |
| 20260506121808 | 54 | 338 | 0.0 | 0.0 | 0.00 | 0.00 | 0.00 | 87 | 1020.0 |
| 20260506121305 | 53 | 341 | 0.0 | 0.0 | 0.00 | 0.00 | 0.00 | 87 | 1020.0 |
| 20260506120802 | 53 | 342 | 0.0 | 0.0 | 0.00 | 0.00 | 0.00 | 88 | 1019.7 |
| 20260506120300 | 53 | 341 | 0.0 | 0.0 | 0.00 | 0.00 | 0.00 | 88 | 1020.0 |
| 20260506115757 | 53 | 340 | 0.0 | 0.0 | 0.00 | 0.00 | 0.00 | 88 | 1019.7 |
| 20260506115255 | 53 | 338 | 0.0 | 0.0 | 0.00 | 0.00 | 0.00 | 88 | 1019.7 |
| 20260506114753 | 53 | 338 | 0.0 | 0.0 | 0.00 | 0.00 | 0.00 | 88 | 1020.0 |
| 20260506114250 | 53 | 339 | 0.0 | 0.0 | 0.00 | 0.00 | 0.00 | 88 | 1019.7 |
| 20260506113749 | 53 | 338 | 0.0 | 0.0 | 0.00 | 0.00 | 0.00 | 88 | 1019.7 |
| 20260506113246 | 53 | 337 | 0.0 | 0.0 | 0.00 | 0.00 | 0.00 | 88 | 1019.7 |
| 20260506112742 | 53 | 338 | 0.0 | 0.0 | 0.00 | 0.00 | 0.00 | 88 | 1019.7 |
| 20260506112240 | 53 | 339 | 0.0 | 0.0 | 0.00 | 0.00 | 0.00 | 88 | 1019.3 |
| 20260506111737 | 53 | 338 | 0.0 | 0.0 | 0.00 | 0.00 | 0.00 | 88 | 1019.7 |
| 20260506111235 | 53 | 344 | 0.0 | 0.0 | 0.00 | 0.00 | 0.00 | 88 | 1019.7 |
| 20260506110732 | 53 | 342 | 0.0 | 1.0 | 0.00 | 0.00 | 0.00 | 88 | 1019.7 |
| 20260506110230 | 53 | 345 | 0.0 | 0.0 | 0.00 | 0.00 | 0.00 | 88 | 1019.3 |
| 20260506105726 | 53 | 338 | 0.0 | 0.0 | 0.00 | 0.00 | 0.00 | 88 | 1019.7 |
| 20260506105223 | 53 | 338 | 0.0 | 0.0 | 0.00 | 0.00 | 0.00 | 88 | 1019.7 |
| 20260506104721 | 54 | 333 | 0.0 | 0.0 | 0.00 | 0.00 | 0.00 | 88 | 1019.7 |
| 20260506104218 | 54 | 339 | 0.0 | 0.0 | 0.00 | 0.00 | 0.00 | 88 | 1019.7 |
| 20260506103715 | 54 | 337 | 0.0 | 0.0 | 0.00 | 0.00 | 0.00 | 88 | 1019.7 |
| 20260506103212 | 54 | 337 | 0.0 | 0.0 | 0.00 | 0.00 | 0.00 | 88 | 1019.7 |
| 20260506102710 | 54 | 353 | 0.0 | 0.0 | 0.00 | 0.00 | 0.00 | 88 | 1019.3 |
| 20260506102208 | 54 | 341 | 0.0 | 0.0 | 0.00 | 0.00 | 0.00 | 88 | 1019.7 |
| 20260506101704 | 54 | 340 | 0.0 | 1.0 | 0.00 | 0.00 | 0.00 | 88 | 1019.7 |
| 20260506101201 | 54 | 335 | 0.0 | 0.0 | 0.00 | 0.00 | 0.00 | 88 | 1019.7 |
| 20260506100659 | 54 | 338 | 0.0 | 0.0 | 0.00 | 0.00 | 0.00 | 88 | 1020.0 |
| 20260506100157 | 54 | 338 | 0.0 | 0.0 | 0.00 | 0.00 | 0.00 | 88 | 1020.0 |
| 20260506095655 | 54 | 337 | 0.0 | 0.0 | 0.00 | 0.00 | 0.00 | 88 | 1019.7 |
| 20260506095151 | 54 | 327 | 0.0 | 0.0 | 0.00 | 0.00 | 0.00 | 87 | 1019.7 |
| 20260506094649 | 54 | 337 | 0.0 | 0.0 | 0.00 | 0.00 | 0.00 | 87 | 1019.7 |
| 20260506094147 | 54 | 336 | 0.0 | 0.0 | 0.00 | 0.00 | 0.00 | 87 | 1019.7 |